Kuchera_Ratio
0.0 0.0 0.0 0.0 0.0 0.0 0.0 0.0 0.0 0.0 0.0 0.0 0.0 0.0 0.0 0.0 0.0 0.0 0.0 0.0 0.0 0.0 0.0 0.0 0.0 0.0 0.0 0.0 0.0 0.0 0.0 0.0 0.0 0.0 0.0 0.0 0.0 0.0 0.0 0.0 0.0 0.0 0.0
0.0 0.0 0.0 0.0 0.0 0.0 0.0 0.0 0.0 0.0 0.0 0.0 0.0 0.0 0.0 0.0 0.0 0.0 0.0 0.0 0.0 0.0 0.0 0.0 0.0 0.0 0.0 0.0 0.0 0.0 0.0 0.0 0.0 0.0 0.0 0.0 0.0 0.0 0.0 0.0 0.0 0.0 0.0
0.0 0.0 0.0 0.0 0.0 0.0 0.0 0.0 0.0 0.0 0.0 0.0 0.0 0.0 0.0 0.0 0.0 0.0 0.0 0.0 0.0 0.0 0.0 0.0 0.0 0.0 0.0 0.0 0.0 0.0 0.0 0.0 0.0 0.0 0.0 0.0 0.0 0.0 0.0 0.0 0.0 0.0 0.0
0.0 0.0 0.0 0.0 0.0 0.0 0.0 0.0 0.0 0.0 0.0 0.0 0.0 0.0 0.0 0.0 0.0 0.0 0.0 0.0 0.0 0.0 0.0 0.0 0.0 0.0 0.0 0.0 0.0 0.0 0.0 0.0 0.0 0.0 0.0 0.0 0.0 0.0 0.0 0.0 0.0 0.0 0.0
0.0 0.0 0.0 0.0 0.0 0.0 0.0 0.0 0.0 0.0 0.0 0.0 0.0 0.0 0.0 0.0 0.0 0.0 0.0 0.0 0.0 0.0 0.0 0.0 0.0 0.0 0.0 0.0 0.0 0.0 0.0 0.0 0.0 0.0 0.0 0.0 0.0 0.0 0.0 0.0 0.0 0.0 0.0
0.0 0.0 0.0 0.0 0.0 0.0 0.0 0.0 0.0 0.0 0.0 0.0 0.0 0.0 0.0 0.0 0.0 0.0 0.0 0.0 0.0 0.0 0.0 0.0 0.0 0.0 0.0 0.0 0.0 0.0 0.0 0.0 0.0 0.0 0.0 0.0 0.0 0.0 0.0 0.0 0.0 0.0 0.0
0.0 0.0 0.0 0.0 0.0 0.0 0.0 0.0 0.0 0.0 0.0 0.0 0.0 0.0 0.0 0.0 0.0 0.0 0.0 0.0 0.0 0.0 0.0 0.0 0.0 0.0 0.0 0.0 0.0 0.0 0.0 0.0 0.0 0.0 0.0 0.0 0.0 0.0 0.0 0.0 0.0 0.0 0.0
0.7 0.0 0.0 0.0 0.0 0.0 0.0 0.0 0.0 0.0 0.0 0.0 0.0 0.0 0.0 0.0 0.0 0.0 0.0 0.0 0.0 0.0 0.0 0.0 0.0 0.0 0.0 0.0 0.0 0.0 0.0 0.0 0.0 0.0 0.0 0.0 0.0 0.0 0.0 0.0 0.0 0.0 0.1
4.5 2.7 0.9 1.2 0.0 0.0 0.0 0.0 0.0 0.0 0.0 0.0 0.0 0.0 0.0 0.0 0.0 0.0 0.0 0.0 0.0 0.0 0.0 0.0 0.0 0.0 0.0 0.0 0.0 0.0 0.0 0.0 0.0 0.0 0.2 0.0 0.4 1.2 1.3 1.6 2.5 2.9 4.1
7.5 7.1 5.9 5.1 5.9 4.4 3.8 1.7 0.0 0.0 0.0 0.0 0.0 0.0 0.0 0.0 0.0 0.0 0.0 0.0 0.0 0.0 0.0 0.0 0.0 0.0 0.0 0.0 0.4 1.3 1.8 2.4 1.9 0.2 1.2 1.6 2.1 2.6 4.0 4.7 5.0 5.6 6.4
8.3 7.9 7.9 7.3 7.3 7.3 7.3 7.5 8.1 7.7 6.1 5.3 4.3 4.0 4.2 4.3 3.6 3.9 4.3 2.5 2.0 1.3 2.1 3.2 3.3 3.1 2.7 3.3 3.3 3.3 3.1 2.9 3.4 4.5 5.6 6.2 6.6 7.0 7.4 7.7 8.0 8.7 9.7
11.1 11.1 11.1 10.5 9.7 9.1 7.9 8.1 8.3 8.9 10.3 9.4 9.0 8.4 8.5 8.8 8.1 7.9 7.9 8.3 7.8 6.9 7.7 7.3 7.5 6.3 6.1 5.7 8.1 7.3 7.0 7.1 7.5 8.1 8.9 9.3 10.0 10.5 11.0 11.4 11.2 11.8 12.1
12.2 12.7 12.6 12.5 12.4 12.1 11.8 10.8 11.1 11.7 11.0 10.7 10.7 10.8 11.2 10.7 10.1 8.5 8.5 9.1 9.7 11.1 9.7 10.0 9.5 9.8 9.6 9.1 10.1 10.7 11.4 10.9 10.8 11.3 11.7 12.2 12.7 12.8 12.9 13.0 13.1 12.7 12.7
12.8 13.1 12.9 13.1 13.3 13.0 12.6 12.3 12.9 13.2 13.3 13.5 13.6 13.6 13.3 12.7 12.2 11.1 10.3 10.1 10.3 11.7 12.3 12.0 11.3 10.5 11.0 12.2 12.6 12.7 13.1 13.0 13.0 13.0 13.4 13.8 14.0 14.3 14.6 14.8 15.0 14.7 15.1
12.6 13.0 13.5 13.4 13.5 13.6 13.3 13.3 13.3 13.4 13.4 14.3 14.3 13.9 14.0 13.7 12.3 10.5 11.1 12.5 12.9 13.0 13.3 12.6 12.7 13.2 13.5 13.2 13.2 13.6 13.7 13.9 14.1 14.6 14.8 15.1 15.3 15.7 16.0 16.3 16.2 16.6 16.7
11.1 12.3 13.2 13.7 13.9 13.9 14.2 14.3 10.5 10.5 10.7 10.7 11.1 12.7 12.2 8.9 7.5 7.7 8.5 9.5 10.5 12.4 14.3 14.2 14.4 14.7 14.8 14.8 15.1 15.2 15.2 15.5 15.5 15.8 16.1 16.4 16.9 17.2 17.5 17.5 17.3 17.9 18.0
12.4 12.0 12.3 13.1 14.0 15.0 15.3 15.6 14.9 13.8 10.5 10.1 9.5 8.9 9.1 8.7 8.7 8.9 9.9 11.3 12.5 14.3 16.2 16.0 15.8 15.9 16.1 16.3 16.5 16.4 16.7 17.0 17.3 17.6 17.8 18.1 18.2 18.4 18.5 18.9 19.4 19.3 19.6
14.1 14.0 14.3 14.1 14.0 15.3 16.4 16.4 16.4 16.4 16.7 16.5 15.8 12.6 11.1 9.9 10.7 11.7 12.7 14.8 16.7 16.8 17.1 17.1 17.3 17.3 17.2 17.4 17.8 18.2 18.4 18.6 19.0 19.1 19.2 19.5 19.8 20.1 20.4 20.5 20.6 20.8 20.8
13.9 14.1 14.1 14.2 14.7 15.9 15.7 16.7 17.3 17.4 17.3 17.3 17.3 17.5 16.1 13.5 14.0 14.7 15.8 18.4 18.6 18.4 18.3 18.4 18.6 18.7 18.9 19.2 19.5 19.7 20.0 20.2 20.3 20.6 21.0 21.1 21.2 21.4 21.8 21.8 21.4 21.5 21.7
14.3 14.3 14.3 14.5 15.2 16.6 17.0 17.9 18.1 18.4 18.3 18.1 18.4 18.9 18.9 19.0 19.0 18.9 19.1 19.2 19.3 19.6 19.8 20.0 20.1 20.2 20.3 20.4 20.6 21.0 21.3 21.5 21.6 21.7 22.1 22.5 22.9 23.1 23.2 22.9 22.5 22.4 22.5
14.9 15.1 15.1 15.3 16.0 16.6 17.6 18.6 19.3 19.3 19.3 19.3 19.2 19.6 19.6 20.2 20.6 20.4 20.4 20.5 20.7 21.0 21.3 21.4 21.5 21.5 21.7 22.1 22.3 22.6 22.7 22.8 23.1 23.3 23.6 23.8 24.1 24.3 24.3 23.9 23.7 23.5 23.2
15.3 15.8 16.3 16.9 16.8 17.3 18.1 17.8 19.3 19.8 19.9 20.6 20.8 20.7 20.8 21.2 21.5 21.7 22.0 22.1 22.2 22.4 22.6 22.6 22.8 23.1 23.2 23.1 23.4 23.6 23.6 24.2 24.3 24.4 24.6 25.1 25.6 25.7 25.4 25.0 24.6 24.6 24.5
16.6 16.7 17.2 17.6 18.0 18.0 18.4 18.9 19.0 19.4 20.1 20.4 20.9 21.4 21.7 22.2 22.7 23.0 23.3 23.3 23.5 23.7 23.7 23.7 23.7 23.8 24.0 24.5 25.0 25.1 25.3 25.6 25.6 25.9 26.2 26.7 26.6 26.3 26.0 25.9 25.6 25.6 25.7
17.8 18.1 18.3 18.7 18.6 19.0 19.1 19.3 19.6 20.1 20.5 20.7 21.0 21.4 21.9 22.6 22.9 23.4 24.1 24.2 24.2 24.6 24.3 23.9 23.8 24.6 24.9 25.6 25.8 26.0 26.4 26.6 27.0 27.3 27.2 27.6 27.6 27.3 27.0 26.6 26.5 26.5 26.2
19.3 19.3 19.5 19.6 19.5 19.7 19.9 20.4 20.4 20.6 21.0 21.3 21.6 21.9 22.4 22.8 23.3 23.8 24.3 24.6 25.3 25.0 25.1 24.2 23.7 24.1 24.8 25.7 26.7 26.8 27.1 27.7 28.0 28.1 28.0 28.0 28.6 28.3 28.0 27.8 27.5 27.3 27.3
20.6 20.7 20.8 20.9 20.9 21.0 21.2 21.6 21.7 21.9 21.9 22.0 22.2 22.5 22.8 23.2 23.9 24.5 24.7 24.9 25.3 25.6 25.0 24.4 24.2 25.0 25.0 26.3 26.4 26.5 27.0 27.7 28.2 28.8 29.0 28.9 29.0 28.7 28.7 28.6 28.2 28.1 27.7